Location: Krasnoyarskiy Pitomnik
(51.1333°N, 71.6167°E)
Time: 22:03:27
(UTC+00:00)

A-11 Canister half - Pass Details

Date: 22 April 2024
Orbit: 1525 x 1683 km, 47.3° (Epoch: 19 May)

Event Time Altitude Azimuth Distance (km) Brightness Sun altitude
Rises 06:06:07 0° 285° (WNW) 4,937 11.4 49.0°
Reaches altitude 10° 06:09:26 10° 280° (W) 3,950 11.0 49.2°
Maximum altitude 06:18:57 48° 211° (SSW) 2,105 10.9 49.8°
Drops below altitude 10° 06:28:20 10° 141° (SE) 3,893 11.9 50.2°
Sets 06:31:35 0° 136° (SE) 4,860 12.2 50.4°
